K8SWR-13 Weather Reports


time (UTC)temp
C
wind
direction
speed
KPH
gust
KPH
rain 1hr
cm
rain 24hr
cm
rain mn
cm
humidity
%
barometer
mb
20260503203633 13 203 17.7 25.7 0.00 0.00 0.00 54 1006.8
20260503203132 14 270 17.7 25.7 0.00 0.00 0.00 52 1006.8
20260503202632 14 248 20.9 25.7 0.00 0.00 0.00 51 1006.8
20260503202133 14 203 11.3 27.4 0.00 0.00 0.00 49 1006.8
20260503201632 15 248 6.4 27.4 0.00 0.00 0.00 48 1006.8
20260503201136 15 225 11.3 27.4 0.00 0.00 0.00 47 1006.8
20260503200633 15 248 11.3 27.4 0.00 0.00 0.00 48 1006.8
20260503200136 15 270 8.0 27.4 0.00 0.00 0.00 47 1006.8
20260503195632 15 203 22.5 27.4 0.00 0.00 0.00 46 1006.8
20260503195132 15 203 11.3 27.4 0.00 0.00 0.00 45 1006.8
20260503194633 15 203 9.7 27.4 0.00 0.00 0.00 44 1006.8
20260503194134 15 248 12.9 27.4 0.00 0.00 0.00 44 1006.8
20260503193632 16 270 11.3 27.4 0.00 0.00 0.00 44 1006.8
20260503193134 16 180 14.5 27.4 0.00 0.00 0.00 43 1006.8
20260503192632 16 225 6.4 27.4 0.00 0.00 0.00 43 1006.8
20260503192132 16 248 22.5 27.4 0.00 0.00 0.00 42 1006.8
20260503191633 16 225 22.5 25.7 0.00 0.00 0.00 41 1006.8
20260503191132 17 225 9.7 25.7 0.00 0.00 0.00 40 1007.1
20260503190632 16 180 6.4 25.7 0.00 0.00 0.00 41 1007.1
20260503190132 16 225 9.7 25.7 0.00 0.00 0.00 41 1007.1
20260503185632 16 0 11.3 25.7 0.00 0.00 0.00 40 1007.1
20260503185132 16 0 11.3 25.7 0.00 0.00 0.00 41 1007.1
20260503184633 16 293 17.7 25.7 0.00 0.00 0.00 42 1007.1
20260503184132 16 45 9.7 22.5 0.00 0.00 0.00 43 1007.1
20260503183632 16 293 9.7 22.5 0.00 0.00 0.00 43 1007.5
20260503183133 16 158 6.4 22.5 0.00 0.00 0.00 43 1007.5
20260503182632 15 23 9.7 25.7 0.00 0.00 0.00 44 1007.5
20260503182132 16 338 4.8 25.7 0.00 0.00 0.00 45 1007.8
20260503181633 16 270 9.7 25.7 0.00 0.00 0.00 44 1007.8
20260503181134 16 315 17.7 25.7 0.00 0.00 0.00 42 1008.1
20260503180633 16 158 9.7 25.7 0.00 0.00 0.00 43 1008.1
20260503180133 16 248 22.5 25.7 0.00 0.00 0.00 44 1008.1
20260503175635 16 68 8.0 25.7 0.00 0.00 0.00 43 1008.1
20260503175133 16 248 9.7 25.7 0.00 0.00 0.00 43 1008.1
20260503174632 16 180 11.3 25.7 0.00 0.00 0.00 42 1008.1
20260503174132 16 203 17.7 25.7 0.00 0.00 0.00 41 1008.1
20260503173632 15 203 9.7 25.7 0.00 0.00 0.00 41 1008.5
20260503173135 15 225 14.5 25.7 0.00 0.00 0.00 42 1008.5
20260503172633 15 203 25.7 25.7 0.00 0.00 0.00 41 1008.5
20260503172132 15 203 17.7 22.5 0.00 0.00 0.00 43 1008.8
20260503171632 15 225 17.7 22.5 0.00 0.00 0.00 42 1008.8
20260503171132 14 270 14.5 22.5 0.00 0.00 0.00 44 1008.8
20260503170635 14 248 17.7 22.5 0.00 0.00 0.00 44 1008.8
20260503170134 15 270 11.3 20.9 0.00 0.00 0.00 43 1009.1
20260503160132 12 203 8.0 19.3 0.00 0.00 0.00 49 1009.8
20260503150635 11 203 4.8 17.7 0.00 0.00 0.00 50 1010.2
20260503150135 11 270 6.4 17.7 0.00 0.00 0.00 51 1010.2
20260503140133 10 270 6.4 12.9 0.00 0.00 0.00 54 1010.5
20260503131135 8 270 6.4 14.5 0.00 0.00 0.00 55 1010.2
20260503130635 8 225 6.4 14.5 0.00 0.00 0.00 57 1010.2
20260503130135 8 203 3.2 14.5 0.00 0.00 0.00 56 1010.5
20260503120133 6 0 6.4 9.7 0.00 0.00 0.00 64 1010.2
20260503110632 3 248 3.2 6.4 0.00 0.00 0.00 71 1010.2
20260503110132 3 68 1.6 8.0 0.00 0.00 0.00 72 1010.2
20260503100133 3 203 1.6 8.0 0.00 0.00 0.00 70 1010.2
20260503090132 3 270 6.4 6.4 0.00 0.00 0.00 68 1010.5
20260503081633 3 113 3.2 6.4 0.00 0.00 0.00 66 1010.8
20260503081132 3 225 0.0 6.4 0.00 0.00 0.00 67 1010.8
20260503080634 3 225 0.0 6.4 0.00 0.00 0.00 66 1010.8
20260503080132 3 45 3.2 6.4 0.00 0.00 0.00 66 1010.8
20260503072633 3 45 0.0 6.4 0.00 0.00 0.00 65 1010.8
20260503072133 3 135 0.0 6.4 0.00 0.00 0.00 64 1011.2
20260503071632 2 293 0.0 3.2 0.00 0.00 0.00 67 1011.2
20260503071132 2 113 0.0 3.2 0.00 0.00 0.00 67 1011.2
20260503070632 2 270 0.0 3.2 0.00 0.00 0.00 65 1011.2
20260503070134 2 68 0.0 3.2 0.00 0.00 0.00 67 1011.2
20260503060145 2 225 0.0 3.2 0.00 0.00 0.00 68 1011.9
20260503054634 3 225 0.0 3.2 0.00 0.00 0.00 68 1012.2
20260503054133 2 293 0.0 3.2 0.00 0.00 0.00 68 1012.2
20260503053635 2 225 1.6 3.2 0.00 0.00 0.00 67 1012.2
20260503053132 2 203 0.0 3.2 0.00 0.00 0.00 68 1012.2
20260503052632 2 113 0.0 3.2 0.00 0.00 0.00 68 1012.2
20260503052134 2 225 0.0 3.2 0.00 0.00 0.00 67 1012.2
20260503051633 2 180 0.0 3.2 0.00 0.00 0.00 67 1012.2
20260503051132 2 225 0.0 3.2 0.00 0.00 0.00 68 1012.2
20260503050633 2 225 0.0 3.2 0.00 0.00 0.00 66 1012.2
20260503050132 2 225 0.0 3.2 0.00 0.00 0.00 67 1012.2
20260503045632 3 225 0.0 3.2 0.00 0.00 0.00 68 1012.2
20260503045132 3 135 0.0 3.2 0.00 0.00 0.00 68 1012.2
20260503044633 3 225 3.2 3.2 0.00 0.00 0.00 71 1012.5
20260503044133 3 203 3.2 3.2 0.00 0.00 0.00 70 1012.5
20260503043638 3 248 0.0 3.2 0.00 0.00 0.00 70 1012.5
20260503043133 3 225 0.0 3.2 0.00 0.00 0.00 69 1012.5
20260503042635 3 225 0.0 3.2 0.00 0.00 0.00 69 1012.5
20260503042132 2 225 3.2 3.2 0.00 0.00 0.00 70 1012.5
20260503041633 2 248 3.2 3.2 0.00 0.00 0.00 70 1012.5
20260503041133 2 225 0.0 3.2 0.00 0.00 0.00 69 1012.5
20260503040633 2 225 0.0 3.2 0.00 0.00 0.00 68 1012.5
20260503040133 2 225 0.0 3.2 0.00 0.00 0.00 67 1012.5
20260503035632 2 248 0.0 3.2 0.00 0.00 0.00 67 1012.5
20260503035133 2 203 1.6 3.2 0.00 0.00 0.00 67 1012.5
20260503034632 2 203 0.0 3.2 0.00 0.00 0.00 66 1012.5
20260503034133 2 203 3.2 3.2 0.00 0.00 0.00 67 1012.5
20260503033632 3 225 0.0 3.2 0.00 0.00 0.00 67 1012.5
20260503033132 3 248 0.0 3.2 0.00 0.00 0.00 64 1012.5
20260503032632 3 225 0.0 3.2 0.00 0.00 0.00 65 1012.5
20260503032135 3 225 0.0 3.2 0.00 0.00 0.00 65 1012.9
20260503031632 3 203 3.2 3.2 0.00 0.00 0.00 64 1012.9
20260503031132 3 225 0.0 3.2 0.00 0.00 0.00 64 1012.9
20260503030633 3 225 0.0 3.2 0.00 0.00 0.00 63 1012.9
20260503030133 3 225 0.0 3.2 0.00 0.00 0.00 65 1012.9
20260503025633 3 225 0.0 3.2 0.00 0.00 0.00 62 1012.9
20260503025132 3 225 0.0 3.2 0.00 0.00 0.00 62 1012.9
20260503024633 3 203 1.6 3.2 0.00 0.00 0.00 62 1012.9
20260503024133 3 225 3.2 3.2 0.00 0.00 0.00 59 1012.9
20260503023633 3 225 0.0 3.2 0.00 0.00 0.00 58 1012.9
20260503023132 3 203 0.0 3.2 0.00 0.00 0.00 58 1012.9
20260503022632 3 203 1.6 3.2 0.00 0.00 0.00 58 1012.9
20260503022132 3 180 3.2 3.2 0.00 0.00 0.00 57 1012.9
20260503021634 3 203 0.0 3.2 0.00 0.00 0.00 58 1012.9
20260503021133 3 203 3.2 3.2 0.00 0.00 0.00 59 1012.9
20260503020633 3 203 0.0 3.2 0.00 0.00 0.00 59 1012.9
20260503020132 4 203 3.2 3.2 0.00 0.00 0.00 57 1012.9
20260503015632 4 225 1.6 3.2 0.00 0.00 0.00 57 1012.9
20260503015133 4 225 1.6 3.2 0.00 0.00 0.00 57 1012.9
20260503014632 4 225 0.0 3.2 0.00 0.00 0.00 57 1012.9
20260503014132 4 225 0.0 3.2 0.00 0.00 0.00 57 1012.9
20260503013633 4 225 0.0 3.2 0.00 0.00 0.00 55 1012.5
20260503013132 5 203 0.0 3.2 0.00 0.00 0.00 53 1012.5
20260503012632 5 203 0.0 3.2 0.00 0.00 0.00 52 1012.5
20260503012133 5 225 0.0 3.2 0.00 0.00 0.00 53 1012.5
20260503011633 5 225 0.0 3.2 0.00 0.00 0.00 52 1012.5
20260503011133 5 203 0.0 3.2 0.00 0.00 0.00 53 1012.5
20260503010634 5 203 0.0 3.2 0.00 0.00 0.00 52 1012.5
20260503010135 5 225 1.6 3.2 0.00 0.00 0.00 51 1012.5
20260503005632 6 203 3.2 4.8 0.00 0.00 0.00 50 1012.5
20260503005132 6 225 0.0 6.4 0.00 0.00 0.00 50 1012.5
20260503004632 6 225 3.2 9.7 0.00 0.00 0.00 47 1012.5
20260503004132 6 203 3.2 9.7 0.00 0.00 0.00 46 1012.5
20260503003632 6 180 0.0 11.3 0.00 0.00 0.00 47 1012.2
20260503003134 7 225 3.2 11.3 0.00 0.00 0.00 41 1012.2
20260503002632 7 248 1.6 11.3 0.00 0.00 0.00 39 1012.2
20260503002133 7 225 0.0 11.3 0.00 0.00 0.00 40 1012.2
20260503001633 7 270 0.0 11.3 0.00 0.00 0.00 43 1012.2
20260503001138 7 270 0.0 11.3 0.00 0.00 0.00 41 1012.5
20260503000632 8 270 0.0 11.3 0.00 0.00 0.00 38 1012.5
20260503000132 8 270 1.6 11.3 0.00 0.00 0.00 36 1012.5
20260502235632 8 180 1.6 11.3 0.00 0.00 0.00 37 1012.5
20260502235132 8 0 3.2 11.3 0.00 0.00 0.00 36 1012.5
20260502234633 8 23 0.0 14.5 0.00 0.00 0.00 37 1012.5
20260502234132 8 248 3.2 14.5 0.00 0.00 0.00 33 1012.5
20260502233632 8 293 3.2 14.5 0.00 0.00 0.00 33 1012.5
20260502233132 9 315 3.2 14.5 0.00 0.00 0.00 34 1012.5
20260502232632 9 270 6.4 14.5 0.00 0.00 0.00 34 1012.5
20260502232132 10 203 3.2 14.5 0.00 0.00 0.00 37 1012.5
20260502231632 10 338 3.2 14.5 0.00 0.00 0.00 34 1012.5
20260502231132 10 315 3.2 14.5 0.00 0.00 0.00 32 1012.5
20260502230632 11 248 11.3 14.5 0.00 0.00 0.00 35 1012.5
20260502230132 11 225 3.2 14.5 0.00 0.00 0.00 34 1012.5
20260502225632 11 158 6.4 14.5 0.00 0.00 0.00 35 1012.5
20260502225133 11 203 6.4 14.5 0.00 0.00 0.00 33 1012.5
20260502224634 10 270 8.0 14.5 0.00 0.00 0.00 32 1012.5
20260502224132 11 225 9.7 12.9 0.00 0.00 0.00 32 1012.5
20260502223633 11 270 3.2 12.9 0.00 0.00 0.00 33 1012.9
20260502223133 11 315 3.2 12.9 0.00 0.00 0.00 34 1012.9
20260502222633 11 248 3.2 12.9 0.00 0.00 0.00 33 1012.9
20260502222133 10 113 3.2 12.9 0.00 0.00 0.00 34 1012.9
20260502221632 11 113 1.6 12.9 0.00 0.00 0.00 36 1012.9
20260502221132 11 180 6.4 12.9 0.00 0.00 0.00 36 1012.5
20260502220633 11 23 8.0 12.9 0.00 0.00 0.00 35 1012.5
20260502220133 11 225 6.4 12.9 0.00 0.00 0.00 35 1012.5
20260502215633 11 293 6.4 12.9 0.00 0.00 0.00 35 1012.5
20260502215132 10 203 12.9 12.9 0.00 0.00 0.00 35 1012.5
20260502214633 11 248 4.8 11.3 0.00 0.00 0.00 34 1012.5
20260502214132 11 338 6.4 11.3 0.00 0.00 0.00 34 1012.5
20260502213633 11 293 8.0 11.3 0.00 0.00 0.00 37 1012.5
20260502213132 11 315 8.0 11.3 0.00 0.00 0.00 34 1012.5
20260502212633 11 203 4.8 14.5 0.00 0.00 0.00 36 1012.5
20260502212132 11 180 3.2 14.5 0.00 0.00 0.00 34 1012.5
20260502211632 11 293 6.4 14.5 0.00 0.00 0.00 38 1012.5
20260502211132 11 293 4.8 14.5 0.00 0.00 0.00 37 1012.5
20260502210633 11 45 3.2 14.5 0.00 0.00 0.00 39 1012.5
20260502210132 11 0 6.4 14.5 0.00 0.00 0.00 40 1012.9
20260502205632 11 338 6.4 14.5 0.00 0.00 0.00 42 1012.9
20260502205132 10 68 6.4 14.5 0.00 0.00 0.00 39 1012.9
20260502204634 9 248 6.4 14.5 0.00 0.00 0.00 41 1012.9
20260502204133 10 270 4.8 14.5 0.00 0.00 0.00 41 1012.9